[[{"header":{"parameterUnit":"m.s-1","parameterCategory":1,"la1":30.2991,"la2":30.254,"lo1":-89.0895,"lo2":-89.0444,"dy":0.0017,"dx":0.0017,"nx":28,"ny":28,"refTime":"2025-12-29T09:00:00:Z","depth":0,"parameterNumber":2,"parameterNumberName":"U-component_of_WINDS"},"data":[0,0,0,0,0,0,0,0,0,0,0,0,0,0,0,0,0,0,0,0,0,0,0,0,0,0,0,0,0,0,0,0,0,0,0,0,0,0,0,0,0,0,0,0,0,0,0,0,0,0,0,0,0,0,0,0,0,0,2.4813,2.4814,0,2.4842,2.4842,2.4843,2.4825,2.4824,2.4823,2.4822,2.485,2.4852,2.4853,0,0,0,0,0,0,0,0,0,0,0,0,0,2.4744,2.4746,2.4813,2.4814,2.4814,2.4842,2.4842,2.4843,2.4825,2.4824,2.4823,2.4822,2.485,2.4852,2.4854,0,0,0,0,0,0,0,0,0,0,0,0,0,2.4774,2.4746,2.4813,2.4809,2.4809,2.4842,2.4842,2.4843,2.4825,2.4824,2.4823,2.4821,2.4849,2.4852,2.4854,2.4893,0,0,2.4861,2.4862,0,0,0,0,0,0,0,0,2.4772,2.4776,2.4809,2.4809,2.4809,2.4828,2.4828,2.486,2.4825,2.4819,2.4822,2.4821,2.4844,2.4847,2.4855,2.4894,2.4896,2.4861,2.4862,2.4863,2.4864,0,0,0,0,0,0,0,2.477,2.4775,2.4825,2.4809,2.4809,2.4805,2.4808,2.4834,2.4838,2.4819,2.4818,2.4822,2.4844,2.4853,2.4855,2.4896,2.4861,2.4863,2.4864,2.4865,2.4971,2.4972,0,0,0,0,0,0,2.4768,2.4773,2.4824,2.4825,2.4787,2.4808,2.4811,2.4823,2.4838,2.4839,2.4823,2.4821,2.4849,2.4853,2.4856,2.4904,2.4863,2.4866,2.4867,2.4969,2.4971,2.4973,0,0,0,0,0,0,2.4767,2.4773,2.4823,2.4799,2.4805,2.481,2.4825,2.4825,2.4833,2.484,2.4841,2.4831,2.4848,2.4853,2.4884,2.4905,2.4867,2.4869,2.4968,2.497,2.4972,2.4999,0,0,0,0,0,0,2.4765,2.4773,2.4787,2.48,2.4806,2.485,2.4826,2.4826,2.4838,2.4835,2.4848,2.4849,2.4848,2.4881,2.4887,2.4907,2.487,2.4966,2.4969,2.4971,2.4996,2.5002,2.5006,0,0,0,0,0,2.4763,2.4793,2.4788,2.4794,2.4825,2.4851,2.4855,2.4853,2.4839,2.4854,2.4859,2.4849,2.4902,2.4884,2.4891,2.4912,2.4965,2.4968,2.4971,2.4994,2.5001,2.5006,0,0,0,0,0,0,2.4782,2.4795,2.4789,2.4825,2.4837,2.4848,2.4867,2.486,2.4877,2.4874,2.4871,2.4874,2.4907,2.4913,2.4893,2.4951,2.4931,2.4935,2.4946,2.4953,2.4958,2.4955,2.4872,0,0,0,0,0,2.4791,2.4811,2.4821,2.4851,2.4858,2.4862,2.4873,2.4871,2.4883,2.4889,2.4895,2.4908,2.4928,2.4941,2.4959,2.4997,2.5,2.5015,2.502,2.5024,2.5028,2.505,2.5057,2.4983,2.4983,2.4983,0,0,2.4808,2.4818,2.4831,2.4856,2.4865,2.4887,2.4866,2.4889,2.4905,2.4892,2.4922,2.4928,2.4942,2.4978,2.4993,2.4983,2.505,2.5029,2.5032,2.5033,2.5054,2.5061,2.5067,2.4985,2.4985,2.4985,0,0,2.4851,2.4861,2.4887,2.4898,2.4913,2.4915,2.4922,2.4935,2.4938,2.4969,2.496,2.4979,2.5012,2.5023,2.5033,2.5083,2.5074,2.5089,2.5115,2.5137,2.5142,2.5148,2.5166,2.5172,2.5093,2.5093,2.5093,0,2.4871,2.4903,2.4902,2.4927,2.4938,2.4928,2.4956,2.4966,2.4986,2.4994,2.4983,2.5026,2.5035,2.5073,2.5085,2.5094,2.5101,2.5087,2.5142,2.5147,2.5152,2.5169,2.5176,2.5095,2.5094,2.5094,2.5094,0,2.4927,2.495,2.497,2.4991,2.5005,2.5031,2.5033,2.5048,2.5045,2.5049,2.5081,2.5091,2.5112,2.5121,2.5118,2.516,2.5153,2.5142,2.5121,2.516,2.5177,2.5183,2.5097,2.5096,2.5096,2.5095,0,0,2.4982,2.5003,2.501,2.502,2.5037,2.5055,2.5081,2.5102,2.5115,2.5129,2.5151,2.5181,2.5172,2.5183,2.5181,2.52,2.524,2.5187,2.5187,2.5196,2.5287,2.5296,2.5303,2.5235,2.5236,2.5237,2.5286,0,2.5026,2.5072,2.5072,2.5114,2.5136,2.5128,2.5151,2.5164,2.5169,2.5188,2.5193,2.5214,2.52,2.5207,2.5225,2.5231,2.5258,2.5228,2.5255,2.5256,2.5252,2.5312,2.532,2.5366,2.5292,2.5294,2.5294,0,2.5084,2.5101,2.5146,2.5161,2.517,2.5191,2.5211,2.5229,2.5244,2.5247,2.5261,2.5257,2.5284,2.5263,2.5301,2.528,2.5292,2.5297,2.5299,2.5301,2.5277,2.5315,2.538,2.5387,2.5304,2.5303,2.5303,0,2.5119,2.5154,2.5186,2.5195,2.5213,2.5228,2.5236,2.525,2.5264,2.5281,2.529,2.5311,2.5322,2.5338,2.5341,2.5325,2.5379,2.5358,2.5382,2.5382,2.5393,2.5392,2.546,2.5401,2.5401,2.5401,2.5401,0,2.5169,2.5196,2.5202,2.5222,2.5253,2.5254,2.5284,2.5292,2.5305,2.5326,2.532,2.534,2.5341,2.5362,2.5364,2.5395,2.5401,2.5403,2.5404,2.5404,2.5403,2.5411,2.5408,2.5402,2.5402,2.5402,2.5401,0,2.5213,2.5219,2.5252,2.5268,2.5273,2.5295,2.5308,2.5327,2.5332,2.5359,2.5365,2.5373,2.5397,2.5401,2.5429,2.5431,2.5469,2.5466,2.5464,2.5463,2.5487,2.5485,2.5562,2.5573,2.5506,2.5507,2.5507,0,2.5244,2.5265,2.5284,2.5298,2.5307,2.5329,2.5343,2.5345,2.536,2.538,2.5397,2.5421,2.544,2.5479,2.5487,2.5509,2.5507,2.5532,2.551,2.551,2.5507,2.5506,2.5508,2.5536,2.5537,2.5538,2.5538,0,2.5299,2.5301,2.5321,2.5343,2.536,2.5377,2.5393,2.5405,2.541,2.5427,2.5452,2.5467,2.5496,2.552,2.5542,2.5551,2.5546,2.5546,2.5552,2.5552,2.5551,2.5552,2.5475,2.5543,2.5543,2.5542,2.5542,2.5542,2.5337,2.5356,2.5373,2.5396,2.5409,2.5425,2.5443,2.5452,2.5473,2.5497,2.5497,2.5525,2.5541,2.5571,2.5581,2.5603,2.5595,2.5605,2.5607,2.5609,2.5612,2.5548,2.5607,2.5607,2.5607,2.5607,2.5607,0,2.5392,2.5402,2.5424,2.5447,2.5466,2.546,2.5478,2.5494,2.5519,2.5535,2.5554,2.5584,2.5608,2.5619,2.5642,2.5658,2.5656,2.5664,2.5662,2.5665,2.5618,2.561,2.5665,2.5665,2.5665,2.5665,2.5665,2.5665,2.5422,2.5454,2.5459,2.5498,2.5508,2.5535,2.5546,2.5561,2.5574,2.5608,2.5627,2.5635,2.5649,2.5674,2.5696,2.5699,2.5708,2.5717,2.5718,2.5674,2.5668,2.5662,2.5655,2.5719,2.5719,2.5764,2.5764,2.5764]},{"header":{"parameterUnit":"m.s-1","parameterCategory":1,"la1":30.2991,"la2":30.254,"lo1":-89.0895,"lo2":-89.0444,"dy":0.0017,"dx":0.0017,"nx":28,"ny":28,"refTime":"2025-12-29T09:00:00:Z","depth":0,"parameterNumber":3,"parameterNumberName":"V-component_of_WINDS"},"data":[0,0,0,0,0,0,0,0,0,0,0,0,0,0,0,0,0,0,0,0,0,0,0,0,0,0,0,0,0,0,0,0,0,0,0,0,0,0,0,0,0,0,0,0,0,0,0,0,0,0,0,0,0,0,0,0,0,0,-8.4581,-8.4583,0,-8.4768,-8.477,-8.4772,-8.4711,-8.4707,-8.4703,-8.47,-8.4885,-8.4894,-8.4902,0,0,0,0,0,0,0,0,0,0,0,0,0,-8.4167,-8.4175,-8.4581,-8.4583,-8.4585,-8.4768,-8.477,-8.4773,-8.4712,-8.4707,-8.4702,-8.4698,-8.4883,-8.4893,-8.4903,0,0,0,0,0,0,0,0,0,0,0,0,0,-8.4349,-8.4177,-8.458,-8.4577,-8.4579,-8.4767,-8.477,-8.4773,-8.4713,-8.4707,-8.4701,-8.4695,-8.4879,-8.4892,-8.4905,-8.5105,0,0,-8.4945,-8.495,0,0,0,0,0,0,0,0,-8.4339,-8.4365,-8.4575,-8.4578,-8.458,-8.471,-8.4692,-8.4884,-8.4715,-8.4662,-8.4699,-8.4692,-8.4832,-8.4848,-8.4896,-8.5114,-8.5122,-8.4946,-8.4954,-8.4959,-8.4963,0,0,0,0,0,0,0,-8.4327,-8.4356,-8.4654,-8.4578,-8.4581,-8.4565,-8.4585,-8.4728,-8.4778,-8.4666,-8.4662,-8.4685,-8.4832,-8.4884,-8.49,-8.5125,-8.4945,-8.4957,-8.4965,-8.497,-8.5519,-8.5525,0,0,0,0,0,0,-8.4313,-8.4346,-8.4648,-8.466,-8.4442,-8.4578,-8.4599,-8.4674,-8.4776,-8.4786,-8.469,-8.4682,-8.4865,-8.4885,-8.4907,-8.515,-8.4959,-8.4971,-8.4979,-8.5512,-8.552,-8.5528,0,0,0,0,0,0,-8.4305,-8.4341,-8.4641,-8.4502,-8.4539,-8.4591,-8.4676,-8.4681,-8.4733,-8.4795,-8.4803,-8.4735,-8.4861,-8.4888,-8.5057,-8.5155,-8.4977,-8.4989,-8.5504,-8.5515,-8.5524,-8.5637,0,0,0,0,0,0,-8.4293,-8.4338,-8.4416,-8.4505,-8.4547,-8.479,-8.4682,-8.4689,-8.4757,-8.4747,-8.4839,-8.4848,-8.4858,-8.5038,-8.507,-8.517,-8.4999,-8.5495,-8.5509,-8.5521,-8.5625,-8.565,-8.5672,0,0,0,0,0,-8.4278,-8.4438,-8.442,-8.4457,-8.4645,-8.4796,-8.482,-8.483,-8.4765,-8.4843,-8.4883,-8.4845,-8.514,-8.5056,-8.5092,-8.5197,-8.5489,-8.5505,-8.552,-8.5615,-8.5645,-8.5671,0,0,0,0,0,0,-8.4357,-8.445,-8.443,-8.4624,-8.4703,-8.4785,-8.4884,-8.4862,-8.4959,-8.4946,-8.4953,-8.4974,-8.5148,-8.5189,-8.5094,-8.5398,-8.5305,-8.5328,-8.5365,-8.5394,-8.5417,-8.5403,-8.501,0,0,0,0,0,-8.4397,-8.4514,-8.4587,-8.4751,-8.4792,-8.4832,-8.4898,-8.4899,-8.498,-8.5012,-8.5064,-8.5143,-8.5253,-8.5326,-8.543,-8.5631,-8.565,-8.5721,-8.5744,-8.5763,-8.5783,-8.5893,-8.5926,-8.5578,-8.5577,-8.5577,0,0,-8.4481,-8.4546,-8.4618,-8.4769,-8.483,-8.495,-8.486,-8.4989,-8.5078,-8.5031,-8.5195,-8.5237,-8.5325,-8.5511,-8.5595,-8.555,-8.5883,-8.5782,-8.5797,-8.5806,-8.5912,-8.5945,-8.5974,-8.5588,-8.5586,-8.5584,0,0,-8.4694,-8.4755,-8.4899,-8.4964,-8.5059,-8.5084,-8.5119,-8.5206,-8.5233,-8.5398,-8.5366,-8.547,-8.566,-8.5725,-8.5783,-8.6024,-8.5994,-8.6058,-8.6179,-8.6287,-8.6314,-8.6339,-8.6426,-8.6457,-8.6077,-8.6078,-8.6078,0,-8.4786,-8.4966,-8.4976,-8.511,-8.5177,-8.5143,-8.5289,-8.535,-8.5474,-8.5521,-8.5469,-8.5708,-8.5765,-8.5967,-8.6026,-8.6074,-8.6114,-8.6047,-8.631,-8.6335,-8.6357,-8.6441,-8.6473,-8.6085,-8.6084,-8.6083,-8.6083,0,-8.5074,-8.52,-8.5305,-8.5428,-8.5507,-8.5646,-8.5677,-8.5755,-8.575,-8.5781,-8.595,-8.6018,-8.6137,-8.6185,-8.6179,-8.6387,-8.6356,-8.6308,-8.6214,-8.6398,-8.6476,-8.6508,-8.6095,-8.6093,-8.6091,-8.6089,0,0,-8.5341,-8.5471,-8.5509,-8.5566,-8.5669,-8.5766,-8.5904,-8.6022,-8.609,-8.6177,-8.6293,-8.6455,-8.6412,-8.6478,-8.648,-8.6574,-8.6763,-8.6514,-8.6516,-8.6559,-8.6997,-8.7034,-8.7071,-8.6744,-8.675,-8.6755,-8.699,0,-8.5564,-8.5809,-8.5823,-8.6044,-8.6161,-8.6132,-8.6252,-8.6328,-8.6361,-8.6463,-8.6499,-8.6615,-8.6548,-8.6588,-8.668,-8.6721,-8.6851,-8.6704,-8.6851,-8.6856,-8.6831,-8.7112,-8.715,-8.737,-8.7021,-8.7026,-8.703,0,-8.5857,-8.5957,-8.619,-8.628,-8.6329,-8.6437,-8.6548,-8.6647,-8.6733,-8.675,-8.6826,-8.6815,-8.6956,-8.6858,-8.7052,-8.6951,-8.7012,-8.7041,-8.705,-8.7064,-8.6954,-8.7134,-8.7439,-8.7473,-8.7078,-8.7074,-8.7071,0,-8.603,-8.6222,-8.6387,-8.6437,-8.6544,-8.6621,-8.667,-8.675,-8.6821,-8.6918,-8.6964,-8.7075,-8.7136,-8.7221,-8.724,-8.7167,-8.7435,-8.7338,-8.7453,-8.7453,-8.7511,-8.7507,-8.7831,-8.7549,-8.7548,-8.7548,-8.7547,0,-8.6279,-8.6423,-8.6467,-8.6569,-8.673,-8.6745,-8.6903,-8.6946,-8.7018,-8.7127,-8.7107,-8.7209,-8.7229,-8.7335,-8.7351,-8.751,-8.7537,-8.7554,-8.7557,-8.7557,-8.7555,-8.7597,-8.7583,-8.7557,-8.7555,-8.7553,-8.7551,0,-8.6499,-8.6534,-8.6713,-8.6802,-8.6828,-8.6943,-8.7018,-8.7116,-8.7147,-8.7285,-8.7318,-8.7367,-8.7492,-8.752,-8.7667,-8.7677,-8.7866,-8.7853,-8.7838,-8.7838,-8.7952,-8.7941,-8.8314,-8.8365,-8.8049,-8.8052,-8.8054,0,-8.6656,-8.6767,-8.6869,-8.6942,-8.6995,-8.7111,-8.7185,-8.7204,-8.7281,-8.7389,-8.7474,-8.7596,-8.7696,-8.7895,-8.7943,-8.8056,-8.8046,-8.8169,-8.8063,-8.806,-8.8049,-8.8043,-8.8055,-8.8189,-8.8193,-8.8196,-8.8198,0,-8.693,-8.6943,-8.7051,-8.7167,-8.7256,-8.7347,-8.7434,-8.7494,-8.7525,-8.7612,-8.7741,-8.7819,-8.797,-8.8093,-8.8206,-8.8254,-8.8232,-8.8231,-8.8264,-8.8265,-8.8253,-8.8263,-8.7895,-8.8223,-8.822,-8.8218,-8.8217,-8.8216,-8.7125,-8.7223,-8.7311,-8.7433,-8.7501,-8.7583,-8.768,-8.7725,-8.7833,-8.796,-8.7964,-8.8104,-8.8188,-8.8339,-8.8394,-8.8504,-8.8465,-8.8512,-8.8524,-8.8536,-8.8547,-8.8235,-8.8524,-8.8523,-8.8523,-8.8522,-8.8522,0,-8.7399,-8.7455,-8.7567,-8.7691,-8.7787,-8.776,-8.7855,-8.7937,-8.8062,-8.8143,-8.8243,-8.8391,-8.851,-8.8568,-8.8686,-8.8762,-8.8755,-8.8793,-8.8788,-8.8799,-8.8574,-8.8535,-8.8797,-8.8797,-8.8797,-8.8797,-8.8797,-8.8797,-8.7554,-8.7719,-8.7743,-8.7942,-8.7996,-8.8136,-8.8193,-8.8269,-8.8334,-8.8502,-8.8602,-8.864,-8.8713,-8.8836,-8.8944,-8.8958,-8.9002,-8.9046,-8.9054,-8.8843,-8.8815,-8.8788,-8.8751,-8.9055,-8.9055,-8.9271,-8.9273,-8.9274]}]]